User: anonymous   Login
Location: Unspecified
(0.0000°N, 0.0000°E)
Time: 08:06:07
(UTC+00:00)
Language:

Injun 5 (Explorer 40) - Orbit

View from above orbital plane
View from above orbital plane
View from above satellite
View from above satellite

Ground track
Ground track

The orbit data is extracted from the following two-line orbital elements,

1  3338U 68066B   18233.03794931 +.00000011 +00000-0 +84366-6 0  9991
2  3338 080.6605 110.1062 1133415 027.5999 338.0805 12.22860199229059
Epoch (UTC): 21 August 2018 00:54:38
Eccentricity: 0.1133415
inclination: 80.6605°
perigee height: 678 km
apogee height: 2482 km
right ascension of ascending node: 110.1062°
argument of perigee: 27.5999°
revolutions per day: 12.22860199
mean anomaly at epoch: 338.0805°
orbit number at epoch: 22905

The dashed part of the orbit path shows where the satellite is in the earth's shadow,  

DLR